Regional Weather Roundup
Issued by NWS Sterling, VA

Home | Current Version | Previous Version | Text Only | Print | Product List | Glossary Off
Versions: 1 2 3 4 5 6 7 8 9 10 11 12 13 14 15 16 17 18 19 20 21 22 23 24 25 26 27 28 29 30 31 32 33 34 35 36 37 38 39 40 41 42 43 44 45 46 47 48 49 50

000
ASUS41 KLWX 181010
RWRLWX

REGIONAL WEATHER ROUNDUP
NATIONAL WEATHER SERVICE BALTIMORE MD/WASHINGTON DC
600 AM EDT THU SEP 18 2014

Note: "FAIR" indicates few or no clouds below 12,000 feet
with no significant weather and/or obstructions to visibility.
 TC=TEMPERATURE CELSIUS

 * =Non NWS site. Station does not report precipitation (e.g. rain,
    snow, etc.), thunder, or fog.

DCZ001-MDZ009-015-VAZ040>042-051-053>054-181100-
WASHINGTON METRO

CITY           SKY/WX    TMP DP  RH WIND       PRES   REMARKS
WASHINGTON NAT PTCLDY    65  53  65 CALM      29.99R
DULLES         CLOUDY    55  53  93 CALM      29.98S
ANDREWS AFB    MOCLDY    59  54  83 CALM      29.98R
QUANTICO       CLOUDY    60  56  86 NW6       29.99R
COLLEGE PARK*  MOCLDY    57  55  94 CALM      29.98R
LEESBURG*      MOCLDY    57  55  94 CALM      29.99S
MANASSAS*      CLOUDY    55  54  94 CALM      29.98S
GAITHERSBURG*  MOCLDY    55  54  94 CALM      30.02S

$$

MDZ006>007-011-014-181100-
BALTIMORE METRO

CITY           SKY/WX    TMP DP  RH WIND       PRES   REMARKS
BWI AIRPORT    MOCLDY    55  52  89 CALM      29.98R
MD SCIENCE CTR   N/A     62  54  74 MISG      29.98S
MARTIN STATE   PTCLDY    55  54  94 CALM      30.00R
ANNAPOLIS      MOCLDY    62  57  83 CALM      29.98R
FORT MEADE*    MOCLDY    54  52  94 CALM      30.00S

$$

MDZ012-015-019>023-181100-
MARYLAND EASTERN SHORE

CITY           SKY/WX    TMP DP  RH WIND       PRES   REMARKS
OCEAN CITY     CLEAR     50  47  89 NW3       29.98R
SALISBURY      CLEAR     53  48  83 CALM      29.98R
BAY BRIDGE AP*   N/A     63  54  72 S3        29.98S
CAMBRIDGE*     CLEAR     54  50  87 CALM      29.98R
EASTON*        MOCLDY    58  58 100 CALM      30.02R

$$

MDZ017>025-181100-
SOUTHERN MARYLAND

CITY           SKY/WX    TMP DP  RH WIND       PRES   REMARKS
PATUXENT RIVER MOCLDY    60  57  89 SW3       29.98R
ST INIGOES     MOCLDY    58  54  86 CALM      29.97S
LEONARDTOWN*   CLOUDY    57  54  88 CALM      29.99S

$$

MDZ003>005-181100-
NORTH CENTRAL MARYLAND

CITY           SKY/WX    TMP DP  RH WIND       PRES   REMARKS
FREDERICK*     CLOUDY    55  54  94 CALM      30.01S
HAGERSTOWN APT MOCLDY    53  49  86 NW3       29.98S
WESTMINSTER*   MOCLDY    55  50  82 CALM      29.99R

$$

MDZ501>502-181100-
WESTERN MARYLAND

CITY           SKY/WX    TMP DP  RH WIND       PRES   REMARKS
OAKLAND*       CLEAR     50  50 100 CALM      30.03R
CUMBERLAND*      N/A     50  46  87 CALM      30.04R

$$

VAZ025>031-181100-
SHENANDOAH VALLEY

CITY           SKY/WX    TMP DP  RH WIND       PRES   REMARKS
WINCHESTER*    PTCLDY    52  50  93 CALM      29.98S
STAUNTON*      MOCLDY    51  48  92 CALM      30.01S

$$

WVZ021-048>050-054>055-181100-
EASTERN WEST VIRGINIA PANHANDLE

CITY           SKY/WX    TMP DP  RH WIND       PRES   REMARKS
MARTINSBURG    MOCLDY    54  48  80 CALM      29.98S
PETERSBURG*    CLOUDY    51  49  93 CALM      30.01S FOG

$$

VAZ036>039-050-181100-
CENTRAL FOOTHILLS

CITY           SKY/WX    TMP DP  RH WIND       PRES   REMARKS
CHARLOTTESVILL CLOUDY    55  53  93 W5        29.98S
ORANGE*        PTCLDY    52  50  93 CALM      29.99S FOG

$$

VAZ055>057-181100-
NORTH AND CENTRAL PIEDMONT

CITY           SKY/WX    TMP DP  RH WIND       PRES   REMARKS
FREDERICKSBRG* CLOUDY    58  58 100 CALM      29.98R
STAFFORD*      CLOUDY    55  55 100 CALM      30.02S

$$

NCZ024-NYZ072-PAZ021-071-VAZ022-071-181100-
OTHER REGIONAL OBSERVATIONS

CITY           SKY/WX    TMP DP  RH WIND       PRES   REMARKS
NEW YORK CITY  CLEAR     58  51  78 NW3       30.00R
PHILADELPHIA   PTCLDY    56  50  80 CALM      29.99R
PITTSBURGH     MOCLDY    53  49  86 CALM      30.02R
ROANOKE        MOCLDY    57  55  93 NE3       30.01S
RICHMOND       PTCLDY    58  56  93 CALM      29.98R
RALEIGH        PTCLDY    60  57  89 CALM      29.98R

$$

ANZ530>537-181100-
MARINE OBSERVATIONS

STATION/POSITION TIME  TEMP    WIND        PRES
                       AIR SEA DIR/SP/G
                 (UTC) (F)     (DEG/KT/KT) (MB)
THOMAS PT LIGHT  1000   67 74  250/  8/  8 1016.2R
BALT KEY BRIDGE  1000   63      30/  4/  4 1014.8S
COVE POINT       1000   66     270/  5/  6 1014.9R
LEWISETTA        1000   63 73  240/  2/  3 1014.6S
SOLOMONS ISLAND  1000      76                N/A
PINEY POINT      1000          230/  4/  5   N/A

$$




USA.gov is the U.S. government's official web portal to all federal, state and local government web resources and services.